Regional Weather Roundup
Issued by NWS Albany, NY

Current Version | Previous Version | Graphics & Text | Print | Product List | Glossary Off
Versions: 1 2 3 4 5 6 7 8 9 10 11 12 13 14 15 16 17 18 19 20 21 22 23 24 25 26 27 28

000
ASUS41 KALY 231110
RWRALY

NEW YORK STATE HOURLY WEATHER ROUNDUP
NATIONAL WEATHER SERVICE ALBANY NY
600 AM EST MON JAN 23 2017

NOTE: "FAIR" INDICATES FEW OR NO CLOUDS BELOW 12,000 FEET WITH NO
SIGNIFICANT WEATHER AND/OR NO OBSTRUCTIONS TO VISIBILITY.

NYZ032-033-038>043-046>054-057>066-NYZ062>081-082-084-231200-
EAST


CITY           SKY/WX    TMP DP  RH WIND       PRES   REMARKS
ALBANY         CLOUDY    39  29  67 E10       29.94R WCI  32
GLENS FALLS    CLOUDY    36  30  79 N3        29.94R
POUGHKEEPSIE   CLOUDY    39  32  76 NE9       29.88F WCI  33
NEWBURGH       CLOUDY    39  36  87 E12       29.87F WCI  32
MONTGOMERY     CLOUDY    41  34  76 NE13      29.85F
WHITE PLAINS   CLOUDY    41  34  76 E14G25    29.83S
ISLIP          CLOUDY    40  33  76 E23G35    29.85R WCI  30
NEW YORK CITY  CLOUDY    43  35  73 E35G44    29.84S
CENTRAL PARK   CLOUDY    41  35  79 E17G32    29.85R
$$

NYZ005>009-017-018-044>046-055-056-231200-
CENTRAL


CITY           SKY/WX    TMP DP  RH WIND       PRES   REMARKS
FULTON         CLOUDY    40  34  79 VRB6      29.81R
SYRACUSE       CLOUDY    39  34  82 E13       29.81R WCI  31
ROME           CLOUDY    38  33  82 E10       29.87S WCI  31
ELMIRA         CLOUDY    45  36  70 SE12G21   29.75R
BINGHAMTON     CLOUDY    37  34  89 SE14G24   29.77R WCI  28
MONTICELLO     CLOUDY    34  32  93 E16G25    29.82S WCI  23
$$

NYZ026>034-041>043-087-231200-
NORTH


CITY           SKY/WX    TMP DP  RH WIND       PRES   REMARKS
WATERTOWN      CLOUDY    33  32  96 NE13      29.85S WCI  24
FORT DRUM      NOT AVBL
OGDENSBURG     CLOUDY    31  30  96 NE14G20   29.92F WCI  20
MASSENA        CLOUDY    30  27  88 NE14      29.97F WCI  19
SARANAC LAKE   CLOUDY    31  29  92 NE7       29.85F WCI  24
PLATTSBURGH    CLOUDY    33  31  92 N3        29.98F
$$

NYZ001>004-010>016-019>021-085-231200-
WEST


CITY           SKY/WX    TMP DP  RH WIND       PRES   REMARKS
NIAGARA FALLS  CLOUDY    38  35  89 E14       29.72R FOG     WCI  30
BUFFALO        CLOUDY    38  36  92 NE15      29.71R FOG     WCI  29
DUNKIRK        CLOUDY    37  37 100 NE6       29.66R WCI  32
JAMESTOWN        N/A     48  43  81 SE10      29.62R
WELLSVILLE     LGT RAIN  45  43  93 SE15      29.67S FOG
ROCHESTER      CLOUDY    40  39  97 E8        29.76R FOG     WCI  34
PENN YAN       CLOUDY    40  37  89 CALM      29.76R FOG
$$

             KEY
       WCI = WIND CHILL INDEX
       VSB = VISIBILITY
       HX  = HEAT INDEX
$$




USA.gov is the U.S. government's official web portal to all federal, state and local government web resources and services.